Flag for Canada Weather past 2 weeks in Regina, Saskatchewan, Canada

Now
45 °F

Light rain. Fog.


Feels Like: 37 °F
Forecast: 38 / 55 °F
Wind: 17 mph from Southeast

Location: Regina Weather Station


UV Index: 0 (Low)

Visibility: 4 mi


Pressure: 29.55 "Hg

Humidity: 100%

Dew point: 45 °F

Location of ReginaLocation

Historic Weather in Regina

°F

Regina temperature yesterday

Maximum temperature yesterday: 68 °F (at 2:00 PM)
Minimum temperature yesterday: 36 °F (at 2:00 AM)
Average temperature yesterday: 52 °F

Past Weeks' High & Low Weather Summary

 TemperatureHumidityPressure
High68 °F (Apr 22, 2:00 PM)100% (Apr 12, 4:00 AM)30.45 "Hg (Apr 12, 4:00 AM)
Low12 °F (Apr 14, 4:00 AM)26% (Apr 22, 4:00 PM)29.51 "Hg (Apr 9, 6:00 AM)
Average36 °F74%29.99 "Hg
* Reported Apr 8 6:00 PM — Apr 23 6:00 PM, Regina, Weather by CustomWeather, © 2014

Note: Actual official high and low records may vary slightly from our data, if they occured in-between our weather recording intervals... More about our weather records

Advertising

Historic Weather Conditions — Data for Previous 24 hours

 ConditionsComfort  
Time TempWeatherWind HumidityBarometerVisibility
6:00 PM
Apr 23
45 °FLight rain. Fog.17 mph100%29.55 "Hg4 mi
5:00 PM45 °FLight rain. Fog.17 mph100%29.55 "Hg4 mi
4:00 PM45 °FLight rain. Fog.24 mph93%29.54 "Hg3 mi
3:00 PM45 °FLight rain. Fog.18 mph93%29.54 "Hg6 mi
2:00 PM45 °FLight rain. Fog.24 mph93%29.54 "Hg3 mi
1:00 PM45 °FLight rain. Overcast.21 mph93%29.55 "Hg9 mi
12:00 PM45 °FLight rain. Fog.22 mph93%29.54 "Hg6 mi
11:00 AM45 °FLight rain. Overcast.24 mph93%29.56 "Hg8 mi
10:00 AM45 °FLight rain. Fog.23 mph87%29.57 "Hg5 mi
9:00 AM46 °FLight rain. Overcast.25 mph76%29.58 "Hg12 mi
8:00 AM45 °FLight rain. Mostly cloudy.20 mph76%29.59 "Hg15 mi
7:45 AM46 °FLight rain. Overcast.22 mph66%29.58 "Hg15 mi
7:00 AM46 °FCool.18 mph62%29.54 "HgN/A
6:00 AM46 °FPartly sunny.29 mph62%29.56 "Hg15 mi
5:00 AM46 °FPassing clouds.23 mph62%29.57 "Hg15 mi
4:00 AM48 °FPassing clouds.25 mph58%29.59 "Hg15 mi
3:00 AM46 °FPassing clouds.26 mph62%29.63 "Hg15 mi
2:00 AM48 °FPassing clouds.26 mph58%29.65 "Hg15 mi
1:00 AM48 °FPassing clouds.24 mph58%29.67 "Hg15 mi
12:00 AM52 °FOvercast.31 mph47%29.70 "Hg15 mi
11:00 PM
Apr 22
50 °FPassing clouds.26 mph54%29.71 "Hg15 mi
10:00 PM52 °FOvercast.24 mph50%29.74 "Hg15 mi
9:00 PM55 °FMostly cloudy.23 mph44%29.75 "Hg15 mi
8:00 PM57 °FMore clouds than sun.24 mph44%29.75 "Hg15 mi
7:00 PM61 °FOvercast.22 mph42%29.74 "Hg15 mi
Weather by CustomWeather, © 2014

See weather overview